Weather in Caloundra

Australia     26°47′49″S   153°08′12″E
temp.,
°C
wind,
m/s
gust,
m/s
humid.,
%
clouds,
%
prec.,
mm/h
press.,
hPa
HPBL,
m
28 november, sun
sun2801:00+23sse12138597 1.1 1013887
04:00+23sse121283100 1.5 1013886
07:00+24se11118190 0.9 1016875
10:00+24se10107865 1.2 1016947
13:00+24se101178100 0.3 1016998
16:00+23se11117796 0.4 1015980
19:00+23se101180100 0.2 1016918
22:00+23se101084100 1.3 1018833
29 november, mon
mon2901:00+23se101082100 0.3 1016833
04:00+23se9983100 0.8 1015725
07:00+23se9984100 0.3 1017730
10:00+23se9983100 0.6 1017779
13:00+23se101081100 0.3 1016854
16:00+24se9980100 0.4 1015825
19:00+24ese998198 0.1 1015783
22:00+24ese91084100 0.7 1016796
30 november, tue
tue3001:00+24ese8985100 2.6 1014713
04:00+24e898298 5.0 1013833
07:00+24e7882100 0.9 1015755
10:00+24ene6788100 5.6 1014486
13:00+24ne6783100 2.6 1012579
16:00+24ne6782100 4.6 1011439
19:00+22wnw1188100 6.8 1013107
22:00+22s2292100 11.0 1013146
1 december, wed
wed101:00+23nne2482100 4.1 1011401
04:00+23nw128599 5.8 1011118
07:00+23wsw228784 1.6 1012100
10:00+23ssw218622 1.9 1012218
13:00+24ene12801 0.9 1011253
16:00+25ene33775 1.7 1010489
19:00+25e44835 0.4 1012465
22:00+24e66876 1.0 1012453
2 december, thu
thu201:00+24ese448511 3.4 1011357
04:00+24sse458315 4.6 1012427
07:00+24sse568414 1.8 1013457
10:00+24sse888114 3.1 1013707
13:00+24se788117 0.1 1013735
16:00+24se887923 0.3 1012759
19:00+24se777779 0.0 1014882
22:00+24se677798 0.0 1014893